Weather History for Sturgeon Bay, WI

Change the Weather History Date:

Sunday, November 10, 2013

  Actual Average Record
Temperature  
Mean Temperature 40 °F -  
Max Temperature 44 °F 42 °F 64 °F (1931)
Min Temperature 37 °F 32 °F 17 °F (1913)
Degree Days  
Heating Degree Days 24    
Moisture  
Dew Point 28 °F    
Average Humidity 62    
Maximum Humidity 75    
Minimum Humidity 49    
Precipitation  
Precipitation 0.00 in - - ()
Sea Level Pressure  
Sea Level Pressure 30.12 in    
Wind  
Wind Speed 15 mph (West)    
Max Wind Speed 23 mph    
Max Gust Speed 29 mph    
Visibility 10 miles    
Events      
Averages and records for this station are not official NWS values.
T = Trace of Precipitation, MM = Missing Value Source: NWS Daily Summary

Daily Weather History Graph

Daily Weather History Graph

Search for Another Location

Airport:

Trip Planner

Search our weather history database for the weather conditions in past years. The results will help you decide how hot, cold, wet, or windy it might be!

Date:

Astronomy

Nov. 10, 2013 Rise Set
Actual Time 6:40 AM CST 4:26 PM CST
Civil Twilight 6:09 AM CST 4:57 PM CST
Nautical Twilight 5:34 AM CST 5:32 PM CST
Astronomical Twilight 4:59 AM CST 6:06 PM CST
Moon 12:48 PM CST (11/10) No Moon Set
Length of Visible Light 10h 48m
Length of Day
9h 45m
First Quarter, 56% of the Moon is Illuminated
Nov 10
First Quarter
Nov 17
Full
Nov 25
Last Quarter
Dec 2
New
Dec 9
First Quarter

Hourly Weather History & Observations

Time (CST) Temp. Windchill Dew Point Humidity Pressure Visibility Wind Dir Wind Speed Gust Speed Precip Events Conditions
12:15 AM 39.2 °F 30.2 °F 28.4 °F 65% 29.92 in 10.0 mi West 17.3 mph 23.0 mph N/A   Overcast
12:35 AM 39.2 °F 29.6 °F 28.4 °F 65% 29.93 in 10.0 mi West 19.6 mph 26.5 mph N/A   Overcast
12:55 AM 39.2 °F 28.7 °F 28.4 °F 65% 29.93 in 10.0 mi WNW 23.0 mph 28.8 mph N/A   Overcast
1:15 AM 39.2 °F 31.2 °F 28.4 °F 65% 29.94 in 10.0 mi West 13.8 mph 26.5 mph N/A   Overcast
1:35 AM 39.2 °F 29.8 °F 28.4 °F 65% 29.95 in 10.0 mi West 18.4 mph 23.0 mph N/A   Overcast
1:55 AM 39.2 °F 29.6 °F 28.4 °F 65% 29.96 in 10.0 mi WNW 19.6 mph 26.5 mph N/A   Overcast
2:15 AM 39.2 °F 30.5 °F 28.4 °F 65% 29.97 in 10.0 mi WNW 16.1 mph 27.6 mph N/A   Overcast
2:35 AM 39.2 °F 30.2 °F 28.4 °F 65% 29.97 in 10.0 mi West 17.3 mph 26.5 mph N/A   Overcast
2:55 AM 39.2 °F 29.8 °F 28.4 °F 65% 29.98 in 10.0 mi WNW 18.4 mph 26.5 mph N/A   Mostly Cloudy
3:15 AM 39.2 °F 30.2 °F 28.4 °F 65% 29.98 in 10.0 mi WNW 17.3 mph 25.3 mph N/A   Mostly Cloudy
3:35 AM 39.2 °F 30.2 °F 28.4 °F 65% 29.99 in 10.0 mi WNW 17.3 mph 26.5 mph N/A   Overcast
3:55 AM 39.2 °F 29.3 °F 28.4 °F 65% 30.00 in 10.0 mi WNW 20.7 mph 28.8 mph N/A   Overcast
4:15 AM 39.2 °F 29.3 °F 28.4 °F 65% 30.01 in 10.0 mi WNW 20.7 mph 26.5 mph N/A   Overcast
4:35 AM 39.2 °F 31.2 °F 28.4 °F 65% 30.03 in 10.0 mi WNW 13.8 mph 26.5 mph N/A   Overcast
4:55 AM 39.2 °F 31.2 °F 28.4 °F 65% 30.04 in 10.0 mi WNW 13.8 mph 21.9 mph N/A   Overcast
5:15 AM 39.2 °F 31.2 °F 28.4 °F 65% 30.06 in 10.0 mi WNW 13.8 mph 25.3 mph N/A   Overcast
5:35 AM 39.2 °F 30.5 °F 28.4 °F 65% 30.07 in 10.0 mi WNW 16.1 mph 23.0 mph N/A   Overcast
5:55 AM 39.2 °F 30.5 °F 28.4 °F 65% 30.08 in 10.0 mi WNW 16.1 mph 28.8 mph N/A   Mostly Cloudy
6:15 AM 37.4 °F 28.2 °F 28.4 °F 70% 30.10 in 10.0 mi WNW 16.1 mph 21.9 mph N/A   Mostly Cloudy
6:35 AM 37.4 °F 27.5 °F 28.4 °F 70% 30.11 in 10.0 mi NW 18.4 mph 26.5 mph N/A   Scattered Clouds
6:55 AM 37.4 °F 27.2 °F 28.4 °F 70% 30.13 in 10.0 mi NW 19.6 mph 24.2 mph N/A   Partly Cloudy
7:15 AM 37.4 °F 28.5 °F 28.4 °F 70% 30.13 in 10.0 mi NW 15.0 mph 24.2 mph N/A   Partly Cloudy
7:35 AM 37.4 °F 28.2 °F 28.4 °F 70% 30.15 in 10.0 mi NW 16.1 mph 21.9 mph N/A   Mostly Cloudy
7:55 AM 37.4 °F 28.5 °F 28.4 °F 70% 30.17 in 10.0 mi NW 15.0 mph 24.2 mph N/A   Mostly Cloudy
8:15 AM 39.2 °F 30.5 °F 30.2 °F 70% 30.18 in 10.0 mi NW 16.1 mph 20.7 mph N/A   Mostly Cloudy
8:35 AM 39.2 °F 30.5 °F 28.4 °F 65% 30.19 in 10.0 mi NW 16.1 mph 27.6 mph N/A   Mostly Cloudy
8:55 AM 39.2 °F 30.5 °F 30.2 °F 70% 30.19 in 10.0 mi NNW 16.1 mph 19.6 mph N/A   Overcast
9:15 AM 39.2 °F 30.8 °F 28.4 °F 65% 30.20 in 10.0 mi NNW 15.0 mph 25.3 mph N/A   Overcast
9:35 AM 39.2 °F 30.2 °F 26.6 °F 61% 30.21 in 10.0 mi NW 17.3 mph 21.9 mph N/A   Mostly Cloudy
9:55 AM 39.2 °F 30.8 °F 28.4 °F 65% 30.22 in 10.0 mi NW 15.0 mph 20.7 mph N/A   Mostly Cloudy
10:15 AM 41.0 °F 33.1 °F 26.6 °F 57% 30.22 in 10.0 mi NW 15.0 mph 20.7 mph N/A   Mostly Cloudy
10:35 AM 42.8 °F 35.1 °F 26.6 °F 53% 30.22 in 10.0 mi NW 16.1 mph 20.7 mph N/A   Scattered Clouds
10:55 AM 42.8 °F 35.4 °F 26.6 °F 53% 30.22 in 10.0 mi NW 15.0 mph 21.9 mph N/A   Scattered Clouds
11:15 AM 42.8 °F 36.6 °F 26.6 °F 53% 30.22 in 10.0 mi WNW 11.5 mph - N/A   Clear
11:35 AM 42.8 °F 37.0 °F 26.6 °F 53% 30.22 in 10.0 mi NW 10.4 mph - N/A   Clear
11:55 AM 42.8 °F 36.6 °F 26.6 °F 53% 30.22 in 10.0 mi NW 11.5 mph - N/A   Mostly Cloudy
12:15 PM 42.8 °F 35.8 °F 24.8 °F 49% 30.22 in 10.0 mi WNW 13.8 mph 18.4 mph N/A   Overcast
12:35 PM 42.8 °F 35.8 °F 26.6 °F 53% 30.22 in 10.0 mi WNW 13.8 mph - N/A   Mostly Cloudy
12:55 PM 42.8 °F 37.0 °F 26.6 °F 53% 30.22 in 10.0 mi West 10.4 mph - N/A   Mostly Cloudy
1:15 PM 42.8 °F 37.0 °F 26.6 °F 53% 30.22 in 10.0 mi WNW 10.4 mph 17.3 mph N/A   Mostly Cloudy
1:35 PM 42.8 °F 36.6 °F 26.6 °F 53% 30.22 in 10.0 mi West 11.5 mph 17.3 mph N/A   Mostly Cloudy
1:55 PM 44.6 °F 39.7 °F 26.6 °F 49% 30.21 in 10.0 mi West 9.2 mph - N/A   Mostly Cloudy
2:15 PM 42.8 °F 37.5 °F 24.8 °F 49% 30.20 in 10.0 mi WSW 9.2 mph - N/A   Scattered Clouds
2:35 PM 42.8 °F 38.0 °F 26.6 °F 53% 30.20 in 10.0 mi West 8.1 mph - N/A   Partly Cloudy
2:55 PM 42.8 °F 37.0 °F 26.6 °F 53% 30.20 in 10.0 mi WSW 10.4 mph - N/A   Partly Cloudy
3:15 PM 42.8 °F 38.6 °F 26.6 °F 53% 30.20 in 10.0 mi SW 6.9 mph - N/A   Partly Cloudy
3:35 PM 42.8 °F 38.0 °F 26.6 °F 53% 30.20 in 10.0 mi WSW 8.1 mph - N/A   Clear
3:55 PM 42.8 °F 38.6 °F 26.6 °F 53% 30.20 in 10.0 mi SW 6.9 mph - N/A   Clear
4:15 PM 42.8 °F 38.6 °F 26.6 °F 53% 30.19 in 10.0 mi SW 6.9 mph - N/A   Clear
4:35 PM 41.0 °F 36.4 °F 26.6 °F 57% 30.19 in 10.0 mi SW 6.9 mph - N/A   Clear
4:55 PM 41.0 °F 36.4 °F 26.6 °F 57% 30.19 in 10.0 mi SW 6.9 mph - N/A   Clear
5:15 PM 39.2 °F 33.6 °F 26.6 °F 61% 30.18 in 10.0 mi SSW 8.1 mph - N/A   Clear
5:35 PM 39.2 °F 34.2 °F 26.6 °F 61% 30.18 in 10.0 mi SW 6.9 mph - N/A   Clear
5:55 PM 39.2 °F 33.6 °F 26.6 °F 61% 30.17 in 10.0 mi SW 8.1 mph - N/A   Clear
6:15 PM 39.2 °F 33.0 °F 28.4 °F 65% 30.16 in 10.0 mi SSW 9.2 mph - N/A   Clear
6:35 PM 39.2 °F 34.2 °F 28.4 °F 65% 30.16 in 10.0 mi SSW 6.9 mph - N/A   Clear
6:55 PM 39.2 °F 33.0 °F 26.6 °F 61% 30.16 in 10.0 mi SSW 9.2 mph - N/A   Partly Cloudy
7:15 PM 39.2 °F 34.2 °F 28.4 °F 65% 30.15 in 10.0 mi SSW 6.9 mph - N/A   Partly Cloudy
7:35 PM 39.2 °F 33.6 °F 28.4 °F 65% 30.14 in 10.0 mi SW 8.1 mph - N/A   Clear
7:55 PM 39.2 °F 33.6 °F 28.4 °F 65% 30.14 in 10.0 mi SSW 8.1 mph - N/A   Mostly Cloudy
8:15 PM 39.2 °F 32.5 °F 28.4 °F 65% 30.13 in 10.0 mi SSW 10.4 mph - N/A   Overcast
8:35 PM 39.2 °F 33.0 °F 28.4 °F 65% 30.13 in 10.0 mi SSW 9.2 mph - N/A   Mostly Cloudy
8:55 PM 39.2 °F 33.0 °F 28.4 °F 65% 30.11 in 10.0 mi SSW 9.2 mph - N/A   Scattered Clouds
9:15 PM 39.2 °F 31.6 °F 28.4 °F 65% 30.11 in 10.0 mi SW 12.7 mph - N/A   Mostly Cloudy
9:35 PM 41.0 °F 33.5 °F 26.6 °F 57% 30.11 in 10.0 mi SW 13.8 mph - N/A   Overcast
9:55 PM 41.0 °F 33.5 °F 26.6 °F 57% 30.11 in 10.0 mi SW 13.8 mph - N/A   Overcast
10:15 PM 42.8 °F 35.1 °F 28.4 °F 57% 30.10 in 10.0 mi WSW 16.1 mph 25.3 mph N/A   Overcast
10:35 PM 41.0 °F 33.9 °F 28.4 °F 61% 30.09 in 10.0 mi West 12.7 mph 25.3 mph N/A   Overcast
10:55 PM 39.2 °F 30.8 °F 30.2 °F 70% 30.09 in 10.0 mi West 15.0 mph 20.7 mph N/A   Overcast
11:15 PM 39.2 °F 31.6 °F 30.2 °F 70% 30.08 in 10.0 mi WSW 12.7 mph 19.6 mph N/A   Overcast
11:35 PM 39.2 °F 32.5 °F 30.2 °F 70% 30.08 in 10.0 mi SW 10.4 mph 16.1 mph N/A   Overcast
11:55 PM 39.2 °F 32.5 °F 32.0 °F 75% 30.07 in 10.0 mi SW 10.4 mph - N/A   Overcast